TimeEST,TemperatureF,Dew PointF,Humidity,Sea Level PressureIn,VisibilityMPH,Wind Direction,Wind SpeedMPH,Gust SpeedMPH,PrecipitationIn,Events,Conditions,WindDirDegrees,DateUTC
12:54 AM,36.0,19.9,52,30.09,10.0,WNW,12.7,28.8,N/A,,Clear,290,2013-02-09 05:54:00
1:54 AM,35.1,18.0,50,30.10,10.0,WNW,16.1,20.7,N/A,,Clear,300,2013-02-09 06:54:00
2:54 AM,34.0,17.1,50,30.11,10.0,NW,10.4,24.2,N/A,,Clear,320,2013-02-09 07:54:00
3:54 AM,34.0,15.1,46,30.12,10.0,NW,20.7,36.8,N/A,,Clear,310,2013-02-09 08:54:00
4:54 AM,33.8,15.8,48,30.11,10.0,NW,16.1,32.2,N/A,,Clear,310,2013-02-09 09:54:00
5:54 AM,33.1,15.1,48,30.16,10.0,NW,18.4,26.5,N/A,,Clear,310,2013-02-09 10:54:00
6:54 AM,32.0,12.9,45,30.21,10.0,NW,10.4,24.2,N/A,,Clear,320,2013-02-09 11:54:00
7:54 AM,32.0,12.0,44,30.25,10.0,Variable,5.8,-,N/A,,Clear,0,2013-02-09 12:54:00
8:54 AM,34.0,10.9,38,30.28,10.0,Variable,4.6,-,N/A,,Clear,0,2013-02-09 13:54:00
9:54 AM,37.0,12.0,36,30.29,10.0,WNW,10.4,-,N/A,,Clear,290,2013-02-09 14:54:00
10:54 AM,41.0,12.0,31,30.31,10.0,North,8.1,-,N/A,,Clear,360,2013-02-09 15:54:00
11:54 AM,42.1,10.9,28,30.32,10.0,NNW,5.8,-,N/A,,Clear,340,2013-02-09 16:54:00
12:54 PM,45.0,12.0,26,30.30,10.0,WNW,10.4,-,N/A,,Clear,290,2013-02-09 17:54:00
1:54 PM,46.0,12.0,25,30.30,10.0,West,12.7,17.3,N/A,,Clear,280,2013-02-09 18:54:00
2:54 PM,48.9,10.9,22,30.28,10.0,WNW,10.4,16.1,N/A,,Clear,290,2013-02-09 19:54:00
3:54 PM,50.0,10.0,20,30.30,10.0,WNW,11.5,17.3,N/A,,Clear,300,2013-02-09 20:54:00
4:54 PM,48.0,10.0,22,30.31,10.0,West,11.5,-,N/A,,Clear,280,2013-02-09 21:54:00
5:54 PM,45.0,10.0,24,30.31,10.0,WNW,5.8,-,N/A,,Clear,300,2013-02-09 22:54:00
6:54 PM,41.0,12.0,31,30.34,10.0,NW,4.6,-,N/A,,Clear,320,2013-02-09 23:54:00
7:54 PM,39.0,12.0,33,30.35,10.0,NW,6.9,-,N/A,,Clear,320,2013-02-10 00:54:00
8:54 PM,39.0,12.0,33,30.36,10.0,Calm,Calm,-,N/A,,Clear,0,2013-02-10 01:54:00
9:54 PM,33.1,16.0,50,30.38,10.0,Calm,Calm,-,N/A,,Clear,0,2013-02-10 02:54:00
10:54 PM,32.0,16.0,52,30.36,10.0,Calm,Calm,-,N/A,,Clear,0,2013-02-10 03:54:00
11:54 PM,30.9,16.0,54,30.38,10.0,South,3.5,-,N/A,,Clear,180,2013-02-10 04:54:00